Year,Month,Day,Hour,Minute,Value (Times are PST for insolation in W/m^2)
2014,10,31,00,00,0.00
2014,10,31,00,01,0.00
2014,10,31,00,02,0.00
2014,10,31,00,03,0.00
2014,10,31,00,04,0.00
2014,10,31,00,05,0.00
2014,10,31,00,06,0.00
2014,10,31,00,07,0.00
2014,10,31,00,08,0.00
2014,10,31,00,09,0.00
2014,10,31,00,10,0.00
2014,10,31,00,11,0.00
2014,10,31,00,12,0.00
2014,10,31,00,13,0.00
2014,10,31,00,14,0.00
2014,10,31,00,15,0.00
2014,10,31,00,16,0.00
2014,10,31,00,17,0.00
2014,10,31,00,18,0.00
2014,10,31,00,19,0.00
2014,10,31,00,20,0.00
2014,10,31,00,21,0.00
2014,10,31,00,22,0.00
2014,10,31,00,23,0.00
2014,10,31,00,24,0.00
2014,10,31,00,25,0.00
2014,10,31,00,26,0.00
2014,10,31,00,27,0.00
2014,10,31,00,28,0.00
2014,10,31,00,29,0.00
2014,10,31,00,30,0.00
2014,10,31,00,31,0.00
2014,10,31,00,32,0.00
2014,10,31,00,33,0.00
2014,10,31,00,34,0.00
2014,10,31,00,35,0.00
2014,10,31,00,36,0.00
2014,10,31,00,37,0.00
2014,10,31,00,38,0.00
2014,10,31,00,39,0.00
2014,10,31,00,40,0.00
2014,10,31,00,41,0.00
2014,10,31,00,42,0.00
2014,10,31,00,43,0.00
2014,10,31,00,44,0.00
2014,10,31,00,45,0.00
2014,10,31,00,46,0.00
2014,10,31,00,47,0.00
2014,10,31,00,48,0.00
2014,10,31,00,49,0.00
2014,10,31,00,50,0.00
2014,10,31,00,51,0.00
2014,10,31,00,52,0.00
2014,10,31,00,53,0.00
2014,10,31,00,54,0.00
2014,10,31,00,55,0.00
2014,10,31,00,56,0.00
2014,10,31,00,57,0.00
2014,10,31,00,58,0.00
2014,10,31,00,59,0.00
2014,10,31,01,00,0.00
2014,10,31,01,01,0.00
2014,10,31,01,02,0.00
2014,10,31,01,03,0.00
2014,10,31,01,04,0.00
2014,10,31,01,05,0.00
2014,10,31,01,06,0.00
2014,10,31,01,07,0.00
2014,10,31,01,08,0.00
2014,10,31,01,09,0.00
2014,10,31,01,10,0.00
2014,10,31,01,11,0.00
2014,10,31,01,12,0.00
2014,10,31,01,13,0.00
2014,10,31,01,14,0.00
2014,10,31,01,15,0.00
2014,10,31,01,16,0.00
2014,10,31,01,17,0.00
2014,10,31,01,18,0.00
2014,10,31,01,19,0.00
2014,10,31,01,20,0.00
2014,10,31,01,21,0.00
2014,10,31,01,22,0.00
2014,10,31,01,23,0.00
2014,10,31,01,24,0.00
2014,10,31,01,25,0.00
2014,10,31,01,26,0.00
2014,10,31,01,27,0.00
2014,10,31,01,28,0.00
2014,10,31,01,29,0.00
2014,10,31,01,30,0.00
2014,10,31,01,31,0.00
2014,10,31,01,32,0.00
2014,10,31,01,33,0.00
2014,10,31,01,34,0.00
2014,10,31,01,35,0.00
2014,10,31,01,36,0.00
2014,10,31,01,37,0.00
2014,10,31,01,38,0.00
2014,10,31,01,39,0.00
2014,10,31,01,40,0.00
2014,10,31,01,41,0.00
2014,10,31,01,42,0.00
2014,10,31,01,43,0.00
2014,10,31,01,44,0.00
2014,10,31,01,45,0.00
2014,10,31,01,46,0.00
2014,10,31,01,47,0.00
2014,10,31,01,48,0.00
2014,10,31,01,49,0.00
2014,10,31,01,50,0.00
2014,10,31,01,51,0.00
2014,10,31,01,52,0.00
2014,10,31,01,53,0.00
2014,10,31,01,54,0.00
2014,10,31,01,55,0.00
2014,10,31,01,56,0.00
2014,10,31,01,57,0.00
2014,10,31,01,58,0.00
2014,10,31,01,59,0.00
2014,10,31,02,00,0.00
2014,10,31,02,01,0.00
2014,10,31,02,02,0.00
2014,10,31,02,03,0.00
2014,10,31,02,04,0.00
2014,10,31,02,05,0.00
2014,10,31,02,06,0.00
2014,10,31,02,07,0.00
2014,10,31,02,08,0.00
2014,10,31,02,09,0.00
2014,10,31,02,10,0.00
2014,10,31,02,11,0.00
2014,10,31,02,12,0.00
2014,10,31,02,13,0.00
2014,10,31,02,14,0.00
2014,10,31,02,15,0.00
2014,10,31,02,16,0.00
2014,10,31,02,17,0.00
2014,10,31,02,18,0.00
2014,10,31,02,19,0.00
2014,10,31,02,20,0.00
2014,10,31,02,21,0.00
2014,10,31,02,22,0.00
2014,10,31,02,23,0.00
2014,10,31,02,24,0.00
2014,10,31,02,25,0.00
2014,10,31,02,26,0.00
2014,10,31,02,27,0.00
2014,10,31,02,28,0.00
2014,10,31,02,29,0.00
2014,10,31,02,30,0.00
2014,10,31,02,31,0.00
2014,10,31,02,32,0.00
2014,10,31,02,33,0.00
2014,10,31,02,34,0.00
2014,10,31,02,35,0.00
2014,10,31,02,36,0.00
2014,10,31,02,37,0.00
2014,10,31,02,38,0.00
2014,10,31,02,39,0.00
2014,10,31,02,40,0.00
2014,10,31,02,41,0.00
2014,10,31,02,42,0.00
2014,10,31,02,43,0.00
2014,10,31,02,44,0.00
2014,10,31,02,45,0.00
2014,10,31,02,46,0.00
2014,10,31,02,47,0.00
2014,10,31,02,48,0.00
2014,10,31,02,49,0.00
2014,10,31,02,50,0.00
2014,10,31,02,51,0.00
2014,10,31,02,52,0.00
2014,10,31,02,53,0.00
2014,10,31,02,54,0.00
2014,10,31,02,55,0.00
2014,10,31,02,56,0.00
2014,10,31,02,57,0.00
2014,10,31,02,58,0.00
2014,10,31,02,59,0.00
2014,10,31,03,00,0.00
2014,10,31,03,01,0.00
2014,10,31,03,02,0.00
2014,10,31,03,03,0.00
2014,10,31,03,04,0.00
2014,10,31,03,05,0.00
2014,10,31,03,06,0.00
2014,10,31,03,07,0.00
2014,10,31,03,08,0.00
2014,10,31,03,09,0.00
2014,10,31,03,10,0.00
2014,10,31,03,11,0.00
2014,10,31,03,12,0.00
2014,10,31,03,13,0.00
2014,10,31,03,14,0.00
2014,10,31,03,15,0.00
2014,10,31,03,16,0.00
2014,10,31,03,17,0.00
2014,10,31,03,18,0.00
2014,10,31,03,19,0.00
2014,10,31,03,20,0.00
2014,10,31,03,21,0.00
2014,10,31,03,22,0.00
2014,10,31,03,23,0.00
2014,10,31,03,24,0.00
2014,10,31,03,25,0.00
2014,10,31,03,26,0.00
2014,10,31,03,27,0.00
2014,10,31,03,28,0.00
2014,10,31,03,29,0.00
2014,10,31,03,30,0.00
2014,10,31,03,31,0.00
2014,10,31,03,32,0.00
2014,10,31,03,33,0.00
2014,10,31,03,34,0.00
2014,10,31,03,35,0.00
2014,10,31,03,36,0.00
2014,10,31,03,37,0.00
2014,10,31,03,38,0.00
2014,10,31,03,39,0.00
2014,10,31,03,40,0.00
2014,10,31,03,41,0.00
2014,10,31,03,42,0.00
2014,10,31,03,43,0.00
2014,10,31,03,44,0.00
2014,10,31,03,45,0.00
2014,10,31,03,46,0.00
2014,10,31,03,47,0.00
2014,10,31,03,48,0.00
2014,10,31,03,49,0.00
2014,10,31,03,50,0.00
2014,10,31,03,51,0.00
2014,10,31,03,52,0.00
2014,10,31,03,53,0.00
2014,10,31,03,54,0.00
2014,10,31,03,55,0.00
2014,10,31,03,56,0.00
2014,10,31,03,57,0.00
2014,10,31,03,58,0.00
2014,10,31,03,59,0.00
2014,10,31,04,00,0.00
2014,10,31,04,01,0.00
2014,10,31,04,02,0.00
2014,10,31,04,03,0.00
2014,10,31,04,04,0.00
2014,10,31,04,05,0.00
2014,10,31,04,06,0.00
2014,10,31,04,07,0.00
2014,10,31,04,08,0.00
2014,10,31,04,09,0.00
2014,10,31,04,10,0.00
2014,10,31,04,11,0.00
2014,10,31,04,12,0.00
2014,10,31,04,13,0.00
2014,10,31,04,14,0.00
2014,10,31,04,15,0.00
2014,10,31,04,16,0.00
2014,10,31,04,17,0.00
2014,10,31,04,18,0.00
2014,10,31,04,19,0.00
2014,10,31,04,20,0.00
2014,10,31,04,21,0.00
2014,10,31,04,22,0.00
2014,10,31,04,23,0.00
2014,10,31,04,24,0.00
2014,10,31,04,25,0.00
2014,10,31,04,26,0.00
2014,10,31,04,27,0.00
2014,10,31,04,28,0.00
2014,10,31,04,29,0.00
2014,10,31,04,30,0.00
2014,10,31,04,31,0.00
2014,10,31,04,32,0.00
2014,10,31,04,33,0.00
2014,10,31,04,34,0.00
2014,10,31,04,35,0.00
2014,10,31,04,36,0.00
2014,10,31,04,37,0.00
2014,10,31,04,38,0.00
2014,10,31,04,39,0.00
2014,10,31,04,40,0.00
2014,10,31,04,41,0.00
2014,10,31,04,42,0.00
2014,10,31,04,43,0.00
2014,10,31,04,44,0.00
2014,10,31,04,45,0.00
2014,10,31,04,46,0.00
2014,10,31,04,47,0.00
2014,10,31,04,48,0.00
2014,10,31,04,49,0.00
2014,10,31,04,50,0.00
2014,10,31,04,51,0.00
2014,10,31,04,52,0.00
2014,10,31,04,53,0.00
2014,10,31,04,54,0.00
2014,10,31,04,55,0.00
2014,10,31,04,56,0.00
2014,10,31,04,57,0.00
2014,10,31,04,58,0.00
2014,10,31,04,59,0.00
2014,10,31,05,00,0.00
2014,10,31,05,01,0.00
2014,10,31,05,02,0.00
2014,10,31,05,03,0.00
2014,10,31,05,04,0.00
2014,10,31,05,05,0.00
2014,10,31,05,06,0.00
2014,10,31,05,07,0.00
2014,10,31,05,08,0.00
2014,10,31,05,09,0.00
2014,10,31,05,10,0.00
2014,10,31,05,11,0.00
2014,10,31,05,12,0.00
2014,10,31,05,13,0.00
2014,10,31,05,14,0.00
2014,10,31,05,15,0.00
2014,10,31,05,16,0.00
2014,10,31,05,17,0.00
2014,10,31,05,18,0.00
2014,10,31,05,19,0.00
2014,10,31,05,20,0.00
2014,10,31,05,21,0.00
2014,10,31,05,22,0.00
2014,10,31,05,23,0.00
2014,10,31,05,24,0.00
2014,10,31,05,25,0.00
2014,10,31,05,26,0.00
2014,10,31,05,27,0.00
2014,10,31,05,28,0.00
2014,10,31,05,29,0.00
2014,10,31,05,30,0.00
2014,10,31,05,31,0.00
2014,10,31,05,32,0.00
2014,10,31,05,33,0.00
2014,10,31,05,34,0.00
2014,10,31,05,35,0.00
2014,10,31,05,36,0.00
2014,10,31,05,37,0.00
2014,10,31,05,38,0.00
2014,10,31,05,39,0.00
2014,10,31,05,40,0.00
2014,10,31,05,41,0.00
2014,10,31,05,42,0.00
2014,10,31,05,43,0.00
2014,10,31,05,44,0.00
2014,10,31,05,45,0.00
2014,10,31,05,46,0.00
2014,10,31,05,47,0.00
2014,10,31,05,48,0.00
2014,10,31,05,49,0.00
2014,10,31,05,50,0.00
2014,10,31,05,51,0.00
2014,10,31,05,52,0.00
2014,10,31,05,53,0.00
2014,10,31,05,54,0.00
2014,10,31,05,55,0.00
2014,10,31,05,56,0.00
2014,10,31,05,57,0.00
2014,10,31,05,58,0.00
2014,10,31,05,59,0.00
2014,10,31,06,00,0.00
2014,10,31,06,01,0.00
2014,10,31,06,02,0.00
2014,10,31,06,03,0.00
2014,10,31,06,04,0.00
2014,10,31,06,05,0.00
2014,10,31,06,06,0.00
2014,10,31,06,07,0.00
2014,10,31,06,08,0.00
2014,10,31,06,09,0.00
2014,10,31,06,10,0.00
2014,10,31,06,11,0.00
2014,10,31,06,12,0.00
2014,10,31,06,13,0.00
2014,10,31,06,14,0.00
2014,10,31,06,15,0.00
2014,10,31,06,16,0.00
2014,10,31,06,17,0.00
2014,10,31,06,18,0.00
2014,10,31,06,19,0.00
2014,10,31,06,20,0.00
2014,10,31,06,21,0.00
2014,10,31,06,22,0.00
2014,10,31,06,23,0.00
2014,10,31,06,24,0.00
2014,10,31,06,25,0.00
2014,10,31,06,26,0.00
2014,10,31,06,27,0.00
2014,10,31,06,28,0.00
2014,10,31,06,29,0.00
2014,10,31,06,30,0.00
2014,10,31,06,31,0.00
2014,10,31,06,32,0.00
2014,10,31,06,33,0.00
2014,10,31,06,34,0.00
2014,10,31,06,35,0.00
2014,10,31,06,36,0.00
2014,10,31,06,37,0.00
2014,10,31,06,38,0.00
2014,10,31,06,39,0.00
2014,10,31,06,40,0.00
2014,10,31,06,41,0.00
2014,10,31,06,42,0.00
2014,10,31,06,43,0.00
2014,10,31,06,44,0.00
2014,10,31,06,45,0.00
2014,10,31,06,46,0.00
2014,10,31,06,47,0.00
2014,10,31,06,48,0.00
2014,10,31,06,49,0.00
2014,10,31,06,50,0.00
2014,10,31,06,51,0.00
2014,10,31,06,52,0.00
2014,10,31,06,53,0.00
2014,10,31,06,54,0.00
2014,10,31,06,55,0.00
2014,10,31,06,56,0.00
2014,10,31,06,57,0.00
2014,10,31,06,58,0.00
2014,10,31,06,59,0.00
2014,10,31,07,00,0.00
2014,10,31,07,01,0.00
2014,10,31,07,02,0.00
2014,10,31,07,03,0.00
2014,10,31,07,04,0.00
2014,10,31,07,05,0.00
2014,10,31,07,06,0.00
2014,10,31,07,07,0.00
2014,10,31,07,08,0.00
2014,10,31,07,09,0.00
2014,10,31,07,10,0.00
2014,10,31,07,11,0.00
2014,10,31,07,12,0.00
2014,10,31,07,13,0.00
2014,10,31,07,14,0.00
2014,10,31,07,15,0.00
2014,10,31,07,16,0.00
2014,10,31,07,17,0.00
2014,10,31,07,18,0.00
2014,10,31,07,19,0.00
2014,10,31,07,20,0.00
2014,10,31,07,21,0.00
2014,10,31,07,22,0.00
2014,10,31,07,23,0.00
2014,10,31,07,24,0.00
2014,10,31,07,25,0.00
2014,10,31,07,26,0.00
2014,10,31,07,27,0.00
2014,10,31,07,28,0.00
2014,10,31,07,29,0.00
2014,10,31,07,30,0.00
2014,10,31,07,31,0.00
2014,10,31,07,32,0.00
2014,10,31,07,33,0.00
2014,10,31,07,34,0.00
2014,10,31,07,35,0.00
2014,10,31,07,36,0.00
2014,10,31,07,37,0.00
2014,10,31,07,38,0.00
2014,10,31,07,39,0.00
2014,10,31,07,40,0.00
2014,10,31,07,41,0.00
2014,10,31,07,42,0.00
2014,10,31,07,43,0.00
2014,10,31,07,44,0.00
2014,10,31,07,45,0.00
2014,10,31,07,46,0.00
2014,10,31,07,47,0.00
2014,10,31,07,48,0.00
2014,10,31,07,49,0.00
2014,10,31,07,50,0.00
2014,10,31,07,51,0.00
2014,10,31,07,52,0.00
2014,10,31,07,53,0.00
2014,10,31,07,54,0.00
2014,10,31,07,55,0.00
2014,10,31,07,56,0.00
2014,10,31,07,57,0.00
2014,10,31,07,58,0.00
2014,10,31,07,59,0.00
2014,10,31,08,00,0.00
2014,10,31,08,01,0.00
2014,10,31,08,02,0.00
2014,10,31,08,03,0.00
2014,10,31,08,04,0.00
2014,10,31,08,05,0.00
2014,10,31,08,06,0.00
2014,10,31,08,07,0.00
2014,10,31,08,08,0.00
2014,10,31,08,09,0.00
2014,10,31,08,10,0.00
2014,10,31,08,11,0.00
2014,10,31,08,12,0.00
2014,10,31,08,13,0.00
2014,10,31,08,14,0.00
2014,10,31,08,15,0.00
2014,10,31,08,16,0.00
2014,10,31,08,17,0.00
2014,10,31,08,18,0.00
2014,10,31,08,19,0.00
2014,10,31,08,20,0.00
2014,10,31,08,21,0.00
2014,10,31,08,22,0.00
2014,10,31,08,23,0.00
2014,10,31,08,24,0.00
2014,10,31,08,25,0.00
2014,10,31,08,26,0.00
2014,10,31,08,27,0.00
2014,10,31,08,28,0.00
2014,10,31,08,29,0.00
2014,10,31,08,30,5.00
2014,10,31,08,31,5.00
2014,10,31,08,32,5.00
2014,10,31,08,33,5.00
2014,10,31,08,34,5.00
2014,10,31,08,35,7.00
2014,10,31,08,36,7.00
2014,10,31,08,37,7.00
2014,10,31,08,38,7.00
2014,10,31,08,39,9.00
2014,10,31,08,40,11.00
2014,10,31,08,41,11.00
2014,10,31,08,42,11.00
2014,10,31,08,43,11.00
2014,10,31,08,44,11.00
2014,10,31,08,45,11.00
2014,10,31,08,46,9.00
2014,10,31,08,47,9.00
2014,10,31,08,48,9.00
2014,10,31,08,49,9.00
2014,10,31,08,50,9.00
2014,10,31,08,51,9.00
2014,10,31,08,52,11.00
2014,10,31,08,53,11.00
2014,10,31,08,54,11.00
2014,10,31,08,55,12.00
2014,10,31,08,56,12.00
2014,10,31,08,57,12.00
2014,10,31,08,58,12.00
2014,10,31,08,59,12.00
2014,10,31,09,00,14.00
2014,10,31,09,01,14.00
2014,10,31,09,02,14.00
2014,10,31,09,03,14.00
2014,10,31,09,04,14.00
2014,10,31,09,05,14.00
2014,10,31,09,06,14.00
2014,10,31,09,07,14.00
2014,10,31,09,08,16.00
2014,10,31,09,09,16.00
2014,10,31,09,10,16.00
2014,10,31,09,11,16.00
2014,10,31,09,12,16.00
2014,10,31,09,13,16.00
2014,10,31,09,14,16.00
2014,10,31,09,15,18.00
2014,10,31,09,16,18.00
2014,10,31,09,17,18.00
2014,10,31,09,18,16.00
2014,10,31,09,19,16.00
2014,10,31,09,20,16.00
2014,10,31,09,21,18.00
2014,10,31,09,22,19.00
2014,10,31,09,23,19.00
2014,10,31,09,24,19.00
2014,10,31,09,25,19.00
2014,10,31,09,26,19.00
2014,10,31,09,27,21.00
2014,10,31,09,28,21.00
2014,10,31,09,29,23.00
2014,10,31,09,30,23.00
2014,10,31,09,31,21.00
2014,10,31,09,32,23.00
2014,10,31,09,33,23.00
2014,10,31,09,34,25.00
2014,10,31,09,35,26.00
2014,10,31,09,36,26.00
2014,10,31,09,37,28.00
2014,10,31,09,38,30.00
2014,10,31,09,39,30.00
2014,10,31,09,40,32.00
2014,10,31,09,41,33.00
2014,10,31,09,42,35.00
2014,10,31,09,43,37.00
2014,10,31,09,44,37.00
2014,10,31,09,45,37.00
2014,10,31,09,46,33.00
2014,10,31,09,47,32.00
2014,10,31,09,48,28.00
2014,10,31,09,49,26.00
2014,10,31,09,50,25.00
2014,10,31,09,51,23.00
2014,10,31,09,52,23.00
2014,10,31,09,53,21.00
2014,10,31,09,54,21.00
2014,10,31,09,55,21.00
2014,10,31,09,56,19.00
2014,10,31,09,57,19.00
2014,10,31,09,58,21.00
2014,10,31,09,59,21.00
2014,10,31,10,00,21.00
2014,10,31,10,01,23.00
2014,10,31,10,02,25.00
2014,10,31,10,03,26.00
2014,10,31,10,04,28.00
2014,10,31,10,05,30.00
2014,10,31,10,06,30.00
2014,10,31,10,07,32.00
2014,10,31,10,08,32.00
2014,10,31,10,09,32.00
2014,10,31,10,10,33.00
2014,10,31,10,11,35.00
2014,10,31,10,12,37.00
2014,10,31,10,13,39.00
2014,10,31,10,14,39.00
2014,10,31,10,15,39.00
2014,10,31,10,16,39.00
2014,10,31,10,17,37.00
2014,10,31,10,18,37.00
2014,10,31,10,19,40.00
2014,10,31,10,20,42.00
2014,10,31,10,21,46.00
2014,10,31,10,22,47.00
2014,10,31,10,23,51.00
2014,10,31,10,24,56.00
2014,10,31,10,25,65.00
2014,10,31,10,26,70.00
2014,10,31,10,27,76.00
2014,10,31,10,28,81.00
2014,10,31,10,29,83.00
2014,10,31,10,30,81.00
2014,10,31,10,31,77.00
2014,10,31,10,32,76.00
2014,10,31,10,33,77.00
2014,10,31,10,34,77.00
2014,10,31,10,35,79.00
2014,10,31,10,36,81.00
2014,10,31,10,37,88.00
2014,10,31,10,38,93.00
2014,10,31,10,39,95.00
2014,10,31,10,40,97.00
2014,10,31,10,41,100.00
2014,10,31,10,42,113.00
2014,10,31,10,43,109.00
2014,10,31,10,44,107.00
2014,10,31,10,45,102.00
2014,10,31,10,46,98.00
2014,10,31,10,47,98.00
2014,10,31,10,48,97.00
2014,10,31,10,49,90.00
2014,10,31,10,50,90.00
2014,10,31,10,51,91.00
2014,10,31,10,52,97.00
2014,10,31,10,53,97.00
2014,10,31,10,54,98.00
2014,10,31,10,55,97.00
2014,10,31,10,56,97.00
2014,10,31,10,57,98.00
2014,10,31,10,58,98.00
2014,10,31,10,59,98.00
2014,10,31,11,00,95.00
2014,10,31,11,01,97.00
2014,10,31,11,02,97.00
2014,10,31,11,03,100.00
2014,10,31,11,04,97.00
2014,10,31,11,05,100.00
2014,10,31,11,06,107.00
2014,10,31,11,07,111.00
2014,10,31,11,08,104.00
2014,10,31,11,09,102.00
2014,10,31,11,10,102.00
2014,10,31,11,11,102.00
2014,10,31,11,12,93.00
2014,10,31,11,13,91.00
2014,10,31,11,14,91.00
2014,10,31,11,15,93.00
2014,10,31,11,16,97.00
2014,10,31,11,17,95.00
2014,10,31,11,18,88.00
2014,10,31,11,19,88.00
2014,10,31,11,20,93.00
2014,10,31,11,21,97.00
2014,10,31,11,22,104.00
2014,10,31,11,23,102.00
2014,10,31,11,24,93.00
2014,10,31,11,25,91.00
2014,10,31,11,26,91.00
2014,10,31,11,27,88.00
2014,10,31,11,28,95.00
2014,10,31,11,29,102.00
2014,10,31,11,30,109.00
2014,10,31,11,31,98.00
2014,10,31,11,32,90.00
2014,10,31,11,33,84.00
2014,10,31,11,34,86.00
2014,10,31,11,35,88.00
2014,10,31,11,36,86.00
2014,10,31,11,37,88.00
2014,10,31,11,38,93.00
2014,10,31,11,39,97.00
2014,10,31,11,40,100.00
2014,10,31,11,41,109.00
2014,10,31,11,42,111.00
2014,10,31,11,43,114.00
2014,10,31,11,44,120.00
2014,10,31,11,45,121.00
2014,10,31,11,46,118.00
2014,10,31,11,47,116.00
2014,10,31,11,48,118.00
2014,10,31,11,49,121.00
2014,10,31,11,50,127.00
2014,10,31,11,51,132.00
2014,10,31,11,52,130.00
2014,10,31,11,53,128.00
2014,10,31,11,54,128.00
2014,10,31,11,55,134.00
2014,10,31,11,56,139.00
2014,10,31,11,57,142.00
2014,10,31,11,58,146.00
2014,10,31,11,59,155.00
2014,10,31,12,00,160.00
2014,10,31,12,01,162.00
2014,10,31,12,02,156.00
2014,10,31,12,03,151.00
2014,10,31,12,04,151.00
2014,10,31,12,05,162.00
2014,10,31,12,06,171.00
2014,10,31,12,07,181.00
2014,10,31,12,08,192.00
2014,10,31,12,09,197.00
2014,10,31,12,10,192.00
2014,10,31,12,11,179.00
2014,10,31,12,12,174.00
2014,10,31,12,13,169.00
2014,10,31,12,14,165.00
2014,10,31,12,15,162.00
2014,10,31,12,16,146.00
2014,10,31,12,17,135.00
2014,10,31,12,18,127.00
2014,10,31,12,19,120.00
2014,10,31,12,20,116.00
2014,10,31,12,21,116.00
2014,10,31,12,22,116.00
2014,10,31,12,23,116.00
2014,10,31,12,24,114.00
2014,10,31,12,25,114.00
2014,10,31,12,26,116.00
2014,10,31,12,27,120.00
2014,10,31,12,28,127.00
2014,10,31,12,29,134.00
2014,10,31,12,30,142.00
2014,10,31,12,31,151.00
2014,10,31,12,32,156.00
2014,10,31,12,33,162.00
2014,10,31,12,34,171.00
2014,10,31,12,35,174.00
2014,10,31,12,36,179.00
2014,10,31,12,37,181.00
2014,10,31,12,38,185.00
2014,10,31,12,39,186.00
2014,10,31,12,40,193.00
2014,10,31,12,41,197.00
2014,10,31,12,42,199.00
2014,10,31,12,43,204.00
2014,10,31,12,44,211.00
2014,10,31,12,45,216.00
2014,10,31,12,46,264.00
2014,10,31,12,47,239.00
2014,10,31,12,48,250.00
2014,10,31,12,49,290.00
2014,10,31,12,50,390.00
2014,10,31,12,51,397.00
2014,10,31,12,52,397.00
2014,10,31,12,53,383.00
2014,10,31,12,54,383.00
2014,10,31,12,55,538.00
2014,10,31,12,56,538.00
2014,10,31,12,57,288.00
2014,10,31,12,58,265.00
2014,10,31,12,59,236.00
2014,10,31,13,00,221.00
2014,10,31,13,01,213.00
2014,10,31,13,02,209.00
2014,10,31,13,03,193.00
2014,10,31,13,04,193.00
2014,10,31,13,05,195.00
2014,10,31,13,06,237.00
2014,10,31,13,07,199.00
2014,10,31,13,08,146.00
2014,10,31,13,09,116.00
2014,10,31,13,10,113.00
2014,10,31,13,11,111.00
2014,10,31,13,12,109.00
2014,10,31,13,13,116.00
2014,10,31,13,14,121.00
2014,10,31,13,15,123.00
2014,10,31,13,16,127.00
2014,10,31,13,17,128.00
2014,10,31,13,18,128.00
2014,10,31,13,19,135.00
2014,10,31,13,20,148.00
2014,10,31,13,21,167.00
2014,10,31,13,22,169.00
2014,10,31,13,23,167.00
2014,10,31,13,24,163.00
2014,10,31,13,25,162.00
2014,10,31,13,26,165.00
2014,10,31,13,27,171.00
2014,10,31,13,28,171.00
2014,10,31,13,29,169.00
2014,10,31,13,30,167.00
2014,10,31,13,31,165.00
2014,10,31,13,32,162.00
2014,10,31,13,33,156.00
2014,10,31,13,34,160.00
2014,10,31,13,35,167.00
2014,10,31,13,36,181.00
2014,10,31,13,37,202.00
2014,10,31,13,38,209.00
2014,10,31,13,39,220.00
2014,10,31,13,40,260.00
2014,10,31,13,41,260.00
2014,10,31,13,42,260.00
2014,10,31,13,43,244.00
2014,10,31,13,44,227.00
2014,10,31,13,45,227.00
2014,10,31,13,46,229.00
2014,10,31,13,47,232.00
2014,10,31,13,48,236.00
2014,10,31,13,49,237.00
2014,10,31,13,50,237.00
2014,10,31,13,51,234.00
2014,10,31,13,52,230.00
2014,10,31,13,53,225.00
2014,10,31,13,54,218.00
2014,10,31,13,55,207.00
2014,10,31,13,56,181.00
2014,10,31,13,57,171.00
2014,10,31,13,58,162.00
2014,10,31,13,59,158.00
2014,10,31,14,00,158.00
2014,10,31,14,01,163.00
2014,10,31,14,02,179.00
2014,10,31,14,03,190.00
2014,10,31,14,04,199.00
2014,10,31,14,05,213.00
2014,10,31,14,06,302.00
2014,10,31,14,07,302.00
2014,10,31,14,08,373.00
2014,10,31,14,09,322.00
2014,10,31,14,10,338.00
2014,10,31,14,11,318.00
2014,10,31,14,12,294.00
2014,10,31,14,13,292.00
2014,10,31,14,14,306.00
2014,10,31,14,15,316.00
2014,10,31,14,16,316.00
2014,10,31,14,17,608.00
2014,10,31,14,18,555.00
2014,10,31,14,19,555.00
2014,10,31,14,20,318.00
2014,10,31,14,21,265.00
2014,10,31,14,22,315.00
2014,10,31,14,23,276.00
2014,10,31,14,24,232.00
2014,10,31,14,25,257.00
2014,10,31,14,26,257.00
2014,10,31,14,27,257.00
2014,10,31,14,28,257.00
2014,10,31,14,29,257.00
2014,10,31,14,30,172.00
2014,10,31,14,31,149.00
2014,10,31,14,32,155.00
2014,10,31,14,33,160.00
2014,10,31,14,34,167.00
2014,10,31,14,35,171.00
2014,10,31,14,36,167.00
2014,10,31,14,37,149.00
2014,10,31,14,38,144.00
2014,10,31,14,39,144.00
2014,10,31,14,40,148.00
2014,10,31,14,41,149.00
2014,10,31,14,42,149.00
2014,10,31,14,43,151.00
2014,10,31,14,44,151.00
2014,10,31,14,45,151.00
2014,10,31,14,46,146.00
2014,10,31,14,47,146.00
2014,10,31,14,48,178.00
2014,10,31,14,49,279.00
2014,10,31,14,50,353.00
2014,10,31,14,51,330.00
2014,10,31,14,52,285.00
2014,10,31,14,53,269.00
2014,10,31,14,54,290.00
2014,10,31,14,55,410.00
2014,10,31,14,56,446.00
2014,10,31,14,57,464.00
2014,10,31,14,58,510.00
2014,10,31,14,59,512.00
2014,10,31,15,00,513.00
2014,10,31,15,01,480.00
2014,10,31,15,02,480.00
2014,10,31,15,03,236.00
2014,10,31,15,04,236.00
2014,10,31,15,05,313.00
2014,10,31,15,06,258.00
2014,10,31,15,07,487.00
2014,10,31,15,08,454.00
2014,10,31,15,09,369.00
2014,10,31,15,10,462.00
2014,10,31,15,11,462.00
2014,10,31,15,12,429.00
2014,10,31,15,13,413.00
2014,10,31,15,14,404.00
2014,10,31,15,15,401.00
2014,10,31,15,16,401.00
2014,10,31,15,17,264.00
2014,10,31,15,18,390.00
2014,10,31,15,19,394.00
2014,10,31,15,20,396.00
2014,10,31,15,21,399.00
2014,10,31,15,22,360.00
2014,10,31,15,23,360.00
2014,10,31,15,24,397.00
2014,10,31,15,25,403.00
2014,10,31,15,26,388.00
2014,10,31,15,27,378.00
2014,10,31,15,28,318.00
2014,10,31,15,29,339.00
2014,10,31,15,30,134.00
2014,10,31,15,31,130.00
2014,10,31,15,32,132.00
2014,10,31,15,33,139.00
2014,10,31,15,34,163.00
2014,10,31,15,35,165.00
2014,10,31,15,36,174.00
2014,10,31,15,37,329.00
2014,10,31,15,38,369.00
2014,10,31,15,39,369.00
2014,10,31,15,40,246.00
2014,10,31,15,41,225.00
2014,10,31,15,42,113.00
2014,10,31,15,43,98.00
2014,10,31,15,44,98.00
2014,10,31,15,45,149.00
2014,10,31,15,46,221.00
2014,10,31,15,47,251.00
2014,10,31,15,48,243.00
2014,10,31,15,49,197.00
2014,10,31,15,50,163.00
2014,10,31,15,51,79.00
2014,10,31,15,52,63.00
2014,10,31,15,53,51.00
2014,10,31,15,54,47.00
2014,10,31,15,55,46.00
2014,10,31,15,56,44.00
2014,10,31,15,57,44.00
2014,10,31,15,58,46.00
2014,10,31,15,59,47.00
2014,10,31,16,00,47.00
2014,10,31,16,01,49.00
2014,10,31,16,02,49.00
2014,10,31,16,03,49.00
2014,10,31,16,04,51.00
2014,10,31,16,05,51.00
2014,10,31,16,06,53.00
2014,10,31,16,07,53.00
2014,10,31,16,08,53.00
2014,10,31,16,09,53.00
2014,10,31,16,10,53.00
2014,10,31,16,11,53.00
2014,10,31,16,12,53.00
2014,10,31,16,13,54.00
2014,10,31,16,14,54.00
2014,10,31,16,15,54.00
2014,10,31,16,16,54.00
2014,10,31,16,17,54.00
2014,10,31,16,18,54.00
2014,10,31,16,19,54.00
2014,10,31,16,20,56.00
2014,10,31,16,21,56.00
2014,10,31,16,22,54.00
2014,10,31,16,23,54.00
2014,10,31,16,24,54.00
2014,10,31,16,25,53.00
2014,10,31,16,26,51.00
2014,10,31,16,27,51.00
2014,10,31,16,28,49.00
2014,10,31,16,29,47.00
2014,10,31,16,30,47.00
2014,10,31,16,31,46.00
2014,10,31,16,32,44.00
2014,10,31,16,33,44.00
2014,10,31,16,34,44.00
2014,10,31,16,35,44.00
2014,10,31,16,36,44.00
2014,10,31,16,37,44.00
2014,10,31,16,38,42.00
2014,10,31,16,39,42.00
2014,10,31,16,40,44.00
2014,10,31,16,41,44.00
2014,10,31,16,42,44.00
2014,10,31,16,43,44.00
2014,10,31,16,44,44.00
2014,10,31,16,45,46.00
2014,10,31,16,46,46.00
2014,10,31,16,47,47.00
2014,10,31,16,48,47.00
2014,10,31,16,49,49.00
2014,10,31,16,50,49.00
2014,10,31,16,51,51.00
2014,10,31,16,52,53.00
2014,10,31,16,53,51.00
2014,10,31,16,54,51.00
2014,10,31,16,55,49.00
2014,10,31,16,56,47.00
2014,10,31,16,57,46.00
2014,10,31,16,58,40.00
2014,10,31,16,59,39.00
2014,10,31,17,00,35.00
2014,10,31,17,01,33.00
2014,10,31,17,02,32.00
2014,10,31,17,03,26.00
2014,10,31,17,04,26.00
2014,10,31,17,05,25.00
2014,10,31,17,06,25.00
2014,10,31,17,07,23.00
2014,10,31,17,08,23.00
2014,10,31,17,09,21.00
2014,10,31,17,10,21.00
2014,10,31,17,11,21.00
2014,10,31,17,12,21.00
2014,10,31,17,13,21.00
2014,10,31,17,14,21.00
2014,10,31,17,15,19.00
2014,10,31,17,16,19.00
2014,10,31,17,17,19.00
2014,10,31,17,18,19.00
2014,10,31,17,19,19.00
2014,10,31,17,20,18.00
2014,10,31,17,21,18.00
2014,10,31,17,22,18.00
2014,10,31,17,23,18.00
2014,10,31,17,24,18.00
2014,10,31,17,25,18.00
2014,10,31,17,26,16.00
2014,10,31,17,27,16.00
2014,10,31,17,28,16.00
2014,10,31,17,29,16.00
2014,10,31,17,30,16.00